Temp
56 56 57 57 57 56 55 54 46 58 57 45 47 40 47 47 48 51 50 48 48 45 45 43 44 43 46 50 49 44 45 41 32 38 48 49 45 40 38 30 31 33 31 30
56 56 56 56 56 56 51 52 51 59 57 41 41 45 47 49 48 49 49 48 50 49 45 40 44 45 50 51 48 44 46 38 26 31 38 44 40 44 44 42 37 28 29 29
56 56 56 56 56 56 51 51 43 49 53 52 48 43 44 45 49 50 51 50 50 47 46 47 43 45 49 49 49 49 47 39 33 26 33 40 35 42 44 42 31 32 34 38
56 56 56 55 55 55 50 51 45 46 42 46 47 45 47 47 45 49 50 48 48 47 42 45 43 46 47 48 48 45 43 32 32 38 42 42 40 40 42 37 38 31 37 40
57 56 55 55 55 55 51 47 46 47 46 47 44 43 45 47 49 47 46 44 49 47 43 45 42 45 44 42 44 42 44 32 35 33 42 42 36 41 42 43 43 41 41 39
56 55 55 55 55 53 52 51 51 47 43 44 43 45 47 48 48 50 50 48 46 46 47 48 49 48 48 46 42 41 41 34 31 26 38 36 30 40 41 42 45 44 38 45
56 55 55 54 54 52 52 53 51 46 41 43 46 47 47 47 47 44 49 49 44 47 52 52 50 46 46 46 45 46 39 37 33 27 30 19 38 44 44 42 47 48 48 48
56 55 55 55 54 54 52 52 49 47 41 46 47 47 46 47 46 43 46 50 51 51 47 41 39 39 38 41 43 43 43 37 31 25 25 35 40 41 41 39 41 49 48 50
56 55 55 55 54 53 51 50 50 48 43 43 49 46 46 41 42 44 46 49 50 46 43 40 30 30 33 32 34 40 43 41 32 28 24 24 38 43 46 45 32 46 46 45
56 55 55 54 54 54 50 49 49 47 42 48 47 43 43 47 43 41 44 44 42 45 38 33 31 32 38 30 30 29 33 34 29 29 25 34 46 46 46 29 38 46 47 46
55 55 54 54 54 54 50 48 50 46 43 45 48 50 45 44 43 41 43 41 41 39 34 34 35 33 37 32 38 35 32 28 27 30 26 25 46 43 38 45 44 48 47 46
55 55 54 54 54 54 52 46 50 50 43 44 48 50 52 50 48 46 46 42 43 43 37 37 37 34 35 35 29 39 32 40 36 36 36 47 46 46 50 49 47 47 47 49
55 55 54 54 55 54 52 47 46 46 43 43 42 43 48 50 49 51 43 45 48 44 43 39 39 34 38 31 34 35 39 44 36 39 43 49 51 49 50 50 48 49 50 49
55 55 55 54 54 54 52 46 46 46 44 36 41 48 43 46 47 48 48 46 46 45 42 38 36 35 42 36 39 38 42 40 39 38 46 48 51 52 52 51 51 48 48 48
54 54 54 54 53 53 51 46 46 48 44 36 37 46 44 44 44 43 45 44 43 40 37 35 35 39 39 39 37 38 45 43 39 41 49 48 48 48 48 48 48 48 46 46
53 53 53 53 53 52 46 41 47 48 47 38 33 41 38 39 41 41 41 41 40 39 36 35 39 45 39 31 31 44 46 50 53 50 51 50 49 48 47 46 47 47 46 45
53 53 53 52 52 48 43 42 45 49 48 37 33 34 36 39 38 38 38 40 39 38 37 35 35 37 38 32 33 45 47 50 52 54 53 49 45 45 48 48 46 46 45 44
53 53 53 52 52 50 44 45 48 49 42 39 32 33 31 38 33 32 39 35 36 36 36 36 32 36 35 31 42 47 48 50 51 52 51 52 49 45 46 46 44 42 41 42
52 52 51 48 45 42 42 48 47 44 42 33 33 31 32 36 35 34 34 37 31 37 32 33 33 32 29 37 41 44 45 44 45 46 47 46 45 45 44 43 41 40 40 41
52 47 43 38 42 47 46 40 36 35 36 35 31 37 32 35 33 32 33 34 32 28 32 35 31 32 40 45 47 47 47 48 46 41 38 40 40 41 41 41 42 42 41 40
45 41 39 41 47 41 39 32 31 32 30 32 33 36 32 36 30 32 35 31 32 26 30 29 29 28 35 44 45 47 48 49 50 47 46 45 43 42 41 41 42 41 41 39
43 42 42 41 36 32 31 30 32 31 29 33 32 34 39 34 38 35 33 30 31 26 31 28 25 31 41 41 42 42 41 41 44 48 48 45 44 44 43 42 41 41 40 39
43 37 32 31 31 26 26 25 30 30 33 34 34 32 34 34 35 34 31 28 28 31 25 25 28 36 40 42 41 40 39 39 39 41 44 43 43 42 41 40 40 40 39 39
35 32 27 27 28 28 30 30 30 33 32 34 36 32 33 34 31 33 28 31 30 23 18 23 32 38 41 40 41 39 38 38 38 40 40 41 40 39 39 39 39 38 38 39
32 31 27 27 32 31 32 33 32 33 39 37 34 33 34 31 31 31 30 25 23 25 25 31 35 40 38 39 39 39 39 38 37 38 38 39 40 39 39 39 39 38 38 37
32 31 29 33 32 30 32 32 32 36 38 36 35 31 30 29 30 27 27 26 24 29 32 35 35 38 40 41 40 40 40 39 38 38 35 37 39 39 40 40 38 38 38 36
31 28 34 33 33 32 31 34 34 40 37 30 32 28 28 32 28 27 29 27 30 33 34 36 39 38 39 40 39 38 38 40 40 39 37 35 36 38 37 36 36 37 37 35
MSLP
1021.40 1020.91 1020.60 1020.11 1019.40 1018.52 1017.73 1017.53 1017.34 1016.99 1017.01 1017.52 1018.08 1018.74 1018.71 1018.67 1018.42 1018.36 1018.04 1017.74 1017.14 1016.99 1017.08 1017.01 1017.11 1017.21 1017.45 1017.81 1018.16 1018.36 1018.79 1018.86 1018.44 1017.58 1016.86 1017.06 1017.48 1017.90 1018.47 1018.96 1019.10 1018.97 1018.42 1015.40
1021.67 1021.02 1020.50 1020.18 1019.92 1019.69 1019.19 1018.01 1017.36 1016.63 1016.53 1017.26 1017.96 1018.76 1018.94 1018.61 1018.22 1017.84 1017.60 1017.05 1017.08 1017.00 1016.81 1016.89 1016.84 1017.06 1017.51 1017.83 1018.12 1018.53 1018.73 1018.79 1018.44 1017.59 1017.57 1017.24 1017.24 1017.10 1017.46 1017.94 1018.40 1018.06 1017.68 1014.33
1021.78 1021.28 1020.65 1020.26 1020.02 1019.86 1019.86 1018.51 1017.66 1017.37 1017.02 1017.42 1017.45 1017.91 1018.25 1018.42 1018.51 1018.13 1017.68 1017.10 1017.11 1016.93 1016.72 1016.79 1016.76 1016.81 1017.36 1017.71 1018.10 1018.60 1018.94 1018.84 1018.73 1018.23 1017.37 1017.22 1016.91 1016.55 1016.66 1017.24 1017.73 1016.73 1015.31 1013.31
1021.65 1021.38 1020.88 1020.34 1020.00 1019.77 1019.89 1018.95 1018.62 1018.35 1018.14 1017.88 1017.77 1017.81 1017.53 1017.63 1017.92 1018.15 1017.97 1017.42 1017.17 1016.87 1016.57 1016.47 1016.71 1016.81 1017.19 1017.77 1018.19 1018.62 1018.94 1018.97 1018.69 1018.11 1017.34 1016.81 1016.25 1015.97 1015.89 1015.78 1015.59 1015.59 1013.17 1012.55
1021.47 1021.33 1020.99 1020.29 1020.00 1019.74 1019.64 1019.48 1019.13 1019.05 1018.39 1018.38 1018.14 1017.91 1017.48 1017.09 1017.07 1017.61 1017.48 1017.54 1017.06 1017.22 1017.17 1017.00 1016.97 1016.93 1016.94 1017.23 1018.11 1018.44 1018.62 1018.89 1018.59 1017.71 1016.50 1016.07 1015.51 1014.61 1014.32 1014.05 1013.97 1013.65 1012.99 1011.97
1021.37 1021.17 1020.97 1020.41 1019.99 1019.91 1019.44 1019.36 1019.17 1019.18 1018.69 1018.21 1018.19 1017.70 1017.21 1017.33 1017.32 1017.01 1017.12 1017.48 1017.66 1017.58 1017.54 1017.38 1017.17 1017.17 1017.15 1017.17 1017.49 1017.80 1018.34 1019.01 1019.04 1017.90 1016.81 1016.10 1014.42 1012.20 1012.21 1012.21 1012.07 1011.96 1011.97 1009.97
1021.22 1021.09 1020.94 1020.74 1020.40 1020.27 1019.80 1019.46 1019.31 1019.09 1018.71 1018.38 1017.80 1017.61 1017.80 1017.77 1017.75 1017.84 1017.35 1017.38 1017.67 1017.82 1017.59 1017.42 1016.97 1016.97 1017.13 1017.09 1017.33 1017.79 1018.27 1018.60 1019.04 1018.33 1017.28 1015.62 1012.30 1011.39 1011.17 1011.21 1010.85 1010.87 1010.39 1009.99
1020.86 1021.01 1020.90 1020.77 1020.50 1020.42 1020.22 1019.66 1019.65 1019.21 1018.59 1018.00 1017.69 1017.59 1017.80 1017.77 1017.89 1018.16 1017.84 1017.61 1017.56 1017.85 1017.86 1017.64 1017.08 1016.77 1016.94 1016.66 1016.87 1017.37 1017.93 1018.70 1018.89 1018.55 1017.57 1014.77 1011.80 1011.21 1010.87 1010.68 1010.04 1009.59 1009.55 1009.43
1020.50 1020.68 1020.71 1020.69 1020.66 1020.45 1020.37 1020.26 1019.94 1019.74 1019.24 1017.75 1017.33 1017.39 1017.56 1017.93 1017.79 1017.70 1017.58 1017.81 1017.97 1018.18 1018.25 1018.02 1017.85 1017.25 1016.52 1016.80 1017.15 1017.48 1017.80 1018.36 1018.95 1018.29 1017.81 1015.12 1011.61 1011.12 1010.76 1010.65 1010.13 1009.01 1008.97 1008.96
1020.05 1020.28 1020.29 1020.42 1020.55 1020.50 1020.52 1020.27 1020.35 1020.03 1019.60 1017.94 1017.75 1017.68 1017.51 1017.64 1017.79 1017.77 1017.69 1018.01 1018.37 1018.41 1018.27 1018.34 1017.92 1017.13 1016.63 1016.73 1016.59 1017.48 1017.94 1018.37 1018.32 1018.21 1016.94 1013.75 1010.94 1010.85 1010.95 1010.99 1009.58 1008.98 1008.96 1008.79
1019.55 1019.67 1019.92 1020.10 1020.15 1020.40 1020.59 1020.46 1020.30 1020.31 1019.74 1018.56 1018.08 1017.82 1017.60 1017.60 1017.69 1017.68 1017.93 1018.28 1018.30 1018.64 1018.76 1018.26 1017.61 1016.99 1016.52 1016.46 1015.67 1015.73 1016.24 1016.57 1016.61 1016.64 1015.65 1012.58 1010.00 1010.58 1010.36 1008.94 1008.66 1008.62 1008.86 1008.95
1019.11 1019.13 1019.28 1019.56 1019.83 1020.13 1020.33 1020.48 1020.33 1020.30 1020.31 1018.78 1018.28 1018.00 1017.51 1017.27 1017.41 1017.34 1017.51 1017.75 1017.84 1017.76 1017.92 1017.60 1017.14 1017.01 1016.53 1016.06 1015.58 1014.46 1014.75 1013.65 1013.72 1013.17 1011.12 1009.20 1008.77 1008.15 1007.87 1007.90 1008.21 1008.33 1008.43 1008.55
1018.69 1018.54 1018.58 1018.91 1019.22 1019.57 1020.10 1020.17 1020.29 1020.51 1020.05 1018.48 1018.13 1017.50 1017.09 1017.31 1017.18 1017.15 1017.49 1017.11 1017.33 1017.75 1017.86 1017.82 1017.21 1016.74 1015.81 1015.60 1014.47 1013.94 1013.27 1012.61 1012.53 1011.96 1008.64 1008.41 1008.13 1007.67 1007.37 1007.53 1007.60 1007.75 1007.83 1008.08
1018.02 1018.06 1017.96 1018.07 1018.48 1018.97 1019.32 1019.87 1019.82 1020.19 1019.97 1019.35 1017.55 1017.19 1017.28 1017.16 1017.40 1017.28 1017.25 1017.28 1017.30 1017.50 1017.98 1018.10 1017.66 1016.96 1015.18 1014.61 1013.80 1013.04 1011.93 1011.73 1011.24 1010.29 1008.43 1008.32 1007.16 1006.78 1006.77 1006.97 1006.99 1007.30 1007.68 1008.00
1017.45 1017.39 1017.37 1017.53 1017.65 1018.28 1018.95 1019.29 1019.23 1019.05 1019.58 1019.12 1017.92 1017.19 1016.96 1017.10 1017.23 1017.54 1017.67 1017.78 1017.96 1018.00 1017.96 1017.85 1017.20 1016.00 1015.89 1014.68 1014.02 1011.76 1010.52 1009.47 1009.75 1007.89 1007.06 1006.98 1006.49 1006.09 1006.13 1006.63 1007.08 1007.40 1007.89 1008.19
1017.00 1016.85 1016.76 1016.69 1017.14 1017.71 1018.98 1019.17 1018.11 1018.49 1018.87 1019.36 1018.58 1017.08 1017.06 1017.35 1017.45 1017.29 1017.42 1017.96 1018.21 1018.31 1018.14 1017.33 1016.34 1015.07 1015.08 1014.77 1012.41 1008.69 1008.46 1007.87 1007.36 1006.22 1006.26 1006.33 1006.29 1006.29 1006.37 1006.89 1007.36 1007.69 1007.96 1008.07
1016.64 1016.48 1016.22 1015.91 1016.28 1017.13 1017.62 1017.62 1017.44 1017.65 1018.36 1019.17 1018.74 1017.30 1017.23 1017.44 1017.43 1017.83 1017.90 1017.57 1017.77 1018.06 1018.11 1017.06 1016.06 1015.25 1015.10 1013.99 1011.80 1006.60 1006.79 1006.49 1006.16 1005.87 1006.04 1005.97 1006.07 1006.29 1006.50 1006.86 1007.24 1007.63 1008.00 1008.06
1016.26 1015.84 1016.04 1015.32 1015.35 1016.05 1016.72 1017.11 1017.25 1017.61 1018.32 1018.87 1018.37 1017.07 1017.37 1017.44 1017.60 1017.75 1017.84 1018.12 1018.12 1017.61 1017.26 1016.45 1015.92 1015.15 1014.48 1012.17 1006.44 1005.85 1005.72 1005.95 1005.47 1005.15 1005.06 1004.77 1005.35 1005.85 1006.29 1006.77 1007.25 1007.70 1007.89 1007.86
1015.84 1015.46 1015.40 1015.43 1015.42 1015.69 1016.13 1016.54 1017.29 1017.81 1017.99 1018.01 1017.49 1016.61 1016.60 1017.25 1017.12 1017.45 1017.88 1017.50 1017.88 1017.00 1016.32 1015.73 1015.33 1013.73 1011.62 1006.67 1004.91 1005.05 1005.41 1005.33 1004.74 1004.51 1004.47 1004.77 1005.11 1005.36 1005.88 1006.40 1006.90 1007.42 1007.52 1007.68
1015.45 1015.86 1015.70 1015.95 1015.69 1015.64 1016.13 1017.13 1017.75 1017.94 1017.53 1016.94 1015.95 1015.64 1015.89 1016.27 1016.99 1017.15 1017.33 1017.17 1016.81 1016.23 1014.98 1014.83 1013.78 1011.05 1009.53 1005.05 1004.20 1004.64 1004.49 1004.35 1004.42 1004.37 1004.57 1005.03 1004.89 1005.13 1005.57 1005.82 1006.21 1006.64 1007.07 1007.43
1015.31 1015.57 1015.51 1015.89 1016.05 1016.22 1016.05 1016.22 1016.51 1016.49 1015.90 1015.11 1014.42 1014.09 1014.37 1014.66 1015.21 1015.83 1016.13 1016.00 1015.90 1015.42 1014.25 1014.33 1012.42 1010.20 1005.62 1003.95 1004.10 1003.76 1003.27 1003.28 1003.36 1003.45 1003.59 1004.07 1004.42 1004.85 1005.23 1005.58 1005.90 1006.23 1006.65 1006.95
1015.40 1015.30 1015.90 1016.25 1016.12 1015.70 1015.66 1015.34 1015.04 1014.31 1013.38 1012.99 1012.94 1012.84 1012.81 1013.58 1013.85 1014.22 1015.22 1015.03 1015.08 1014.15 1013.90 1013.79 1011.63 1007.62 1004.44 1004.26 1003.65 1003.36 1003.09 1002.83 1002.78 1002.89 1003.03 1003.32 1003.92 1004.40 1004.87 1005.25 1005.45 1005.89 1006.13 1006.49
1015.39 1015.44 1016.13 1015.94 1015.45 1015.17 1014.69 1013.14 1012.64 1012.18 1011.68 1011.54 1012.06 1012.54 1012.81 1013.49 1013.53 1013.93 1014.16 1014.01 1013.74 1013.52 1013.46 1011.62 1008.90 1005.42 1004.80 1004.29 1003.60 1003.11 1003.00 1003.05 1002.80 1002.68 1002.64 1002.87 1003.56 1004.27 1004.87 1005.12 1005.44 1005.88 1006.15 1006.32
1015.24 1015.25 1015.33 1014.61 1013.56 1012.45 1011.29 1010.89 1010.35 1010.03 1010.08 1010.49 1011.42 1012.05 1012.38 1012.66 1013.00 1012.74 1012.78 1012.62 1012.84 1012.76 1012.09 1009.13 1006.26 1005.06 1004.28 1003.88 1003.56 1003.38 1003.32 1003.25 1003.11 1002.77 1002.73 1002.94 1003.37 1004.13 1004.59 1004.93 1005.33 1005.69 1005.86 1006.08
1014.42 1014.03 1013.15 1011.93 1010.46 1010.19 1010.41 1010.17 1010.16 1009.93 1010.25 1010.65 1011.32 1011.63 1011.84 1012.06 1012.07 1011.69 1011.70 1012.08 1011.56 1010.57 1008.34 1006.53 1004.93 1004.44 1004.32 1004.11 1003.72 1003.40 1003.34 1003.13 1003.17 1003.36 1003.48 1003.51 1003.65 1003.99 1004.41 1004.66 1005.01 1005.21 1005.44 1005.65
1013.02 1012.32 1011.16 1010.48 1010.53 1010.10 1010.36 1010.34 1010.32 1010.10 1010.31 1010.69 1010.82 1011.02 1010.90 1010.80 1010.80 1010.68 1010.33 1010.51 1009.41 1007.09 1006.25 1005.19 1004.57 1004.29 1004.03 1003.96 1003.96 1003.57 1003.44 1003.25 1002.88 1003.49 1003.89 1003.96 1003.95 1004.04 1004.22 1004.50 1004.71 1004.91 1005.05 1005.22
1010.71 1010.29 1010.16 1010.10 1010.06 1009.65 1009.70 1009.41 1009.63 1009.77 1010.05 1010.32 1010.30 1009.92 1009.59 1009.30 1009.09 1009.09 1008.88 1007.78 1005.81 1005.06 1005.03 1004.50 1004.03 1004.30 1004.16 1003.75 1003.59 1003.61 1003.42 1003.53 1003.29 1003.15 1003.81 1004.05 1003.93 1003.98 1004.34 1004.55 1004.50 1004.62 1004.91 1005.17
Wind_Speed
15 16 18 19 20 24 5 2 3 3 4 4 3 3 2 2 6 4 3 3 2 3 0 3 2 1 1 3 1 1 3 2 4 6 6 4 6 6 6 2 1 3 2 9
13 15 16 17 17 18 6 3 1 2 0 3 3 2 1 4 4 5 4 4 3 1 2 3 2 3 5 5 4 1 1 1 4 2 2 3 4 5 6 4 4 7 3 8
12 13 14 15 15 15 4 3 1 5 2 2 5 3 2 2 1 2 3 2 2 3 4 4 1 3 4 3 4 4 1 2 5 4 2 4 4 6 9 9 4 4 13 15
11 13 14 14 13 12 1 2 1 1 1 1 2 1 3 4 3 3 3 3 6 3 2 5 5 2 6 6 7 3 3 4 4 9 14 14 13 13 12 14 15 8 6 10
11 13 15 13 10 12 1 3 1 2 2 1 3 3 5 5 5 2 4 4 1 3 4 5 4 3 3 2 6 4 4 5 6 9 14 12 12 15 18 20 18 19 20 25
9 11 14 10 7 5 2 1 1 2 2 3 2 1 2 1 3 5 1 5 5 6 5 6 6 5 7 6 3 8 6 2 5 6 9 10 10 13 20 13 12 19 17 20
6 8 9 8 7 5 2 2 2 1 2 3 4 4 0 4 5 3 1 2 2 1 4 8 9 8 8 8 8 5 3 3 4 6 7 3 8 1 1 5 16 15 11 8
5 6 7 7 6 6 3 1 1 2 3 4 5 4 4 4 3 3 6 6 0 3 4 3 6 1 2 6 7 7 7 3 3 3 3 12 10 2 3 3 5 8 12 10
6 5 6 6 6 5 3 1 1 2 3 4 2 2 6 4 5 4 5 3 3 1 2 2 3 4 3 3 3 2 4 6 2 3 2 7 2 2 1 1 6 3 1 2
7 8 7 7 6 4 2 1 1 1 2 3 3 4 4 5 2 2 2 5 3 2 2 3 4 5 2 4 5 6 4 5 11 7 5 10 4 6 3 2 7 4 4 2
10 10 10 9 8 4 1 1 0 1 3 4 4 3 4 2 2 3 2 3 1 3 3 2 5 3 4 2 5 7 9 7 6 6 6 12 7 5 8 6 1 5 5 4
11 11 12 11 10 9 5 2 1 1 2 4 1 5 7 3 2 3 5 1 1 4 3 3 2 2 3 5 5 3 5 8 5 10 9 5 10 8 9 6 5 6 5 6
12 12 14 13 12 13 10 2 3 1 3 5 1 7 4 3 5 1 3 4 2 1 2 2 3 5 1 4 7 5 6 6 5 2 10 18 13 11 10 8 9 7 7 7
13 13 14 15 14 14 12 4 3 1 2 4 4 1 3 1 2 6 3 2 3 3 1 2 4 4 5 5 4 5 6 4 5 8 18 16 21 14 11 9 7 5 4 6
12 13 13 15 16 14 8 2 4 4 4 3 4 3 5 4 4 5 4 3 3 2 3 4 4 4 3 4 3 13 10 11 9 13 10 8 6 3 2 5 7 6 5 6
12 13 13 13 16 12 3 3 7 8 4 1 5 0 4 2 4 6 7 4 3 3 4 4 5 4 4 4 6 7 12 19 20 24 9 9 5 3 4 3 4 4 4 6
12 12 13 13 18 10 5 5 1 10 4 3 4 4 2 3 3 1 1 4 3 3 3 5 4 2 5 4 14 9 9 13 16 20 19 16 5 6 7 6 3 2 6 7
13 11 13 13 21 11 2 3 8 8 4 2 4 4 1 6 3 3 2 2 2 3 3 2 3 3 4 9 29 20 16 21 25 21 11 16 7 3 6 5 3 5 7 6
12 10 5 4 1 3 2 12 12 1 2 4 4 4 2 3 2 3 2 3 4 3 5 4 5 5 11 26 19 17 11 9 8 6 9 9 11 10 9 8 6 7 6 6
12 2 1 3 2 22 17 3 4 1 3 4 4 2 3 5 3 3 3 3 4 4 6 3 5 9 13 31 25 17 15 13 9 7 5 6 7 9 8 10 7 7 4 3
1 3 2 0 17 1 2 4 4 5 5 5 4 9 7 5 5 5 4 4 3 4 3 4 4 5 20 18 16 17 20 20 18 11 9 7 7 7 8 7 7 6 6 5
1 3 4 2 2 3 4 5 4 7 6 6 6 7 7 3 3 4 4 4 5 6 4 3 5 11 13 8 7 9 8 7 10 13 17 10 9 7 7 6 7 6 6 4
1 2 2 3 3 4 7 9 5 5 5 6 5 3 4 2 2 3 5 6 6 4 3 6 9 8 8 10 8 7 5 6 6 8 7 10 8 7 6 6 5 5 4 4
4 5 7 7 6 7 7 5 4 4 3 8 7 3 3 3 5 3 5 4 3 4 5 10 5 5 6 6 6 3 5 6 7 6 7 11 10 8 7 6 5 6 4 2
5 5 7 11 6 2 1 1 2 2 5 8 4 1 3 3 4 4 3 4 5 7 8 4 4 3 6 7 5 5 6 4 3 3 4 6 7 7 7 6 6 5 4 4
6 7 5 1 2 3 3 2 1 1 6 3 2 3 4 6 5 6 7 5 8 7 4 4 3 5 5 5 7 6 5 5 5 4 4 6 6 7 6 4 4 3 3 4
6 6 6 4 3 3 3 4 4 5 7 4 4 8 9 2 5 6 5 8 6 3 3 2 3 6 8 7 7 6 5 5 5 4 5 5 3 4 4 5 4 3 4 6
Wind_Direction
343 347 349 349 346 339 305 293 12 172 146 62 59 21 57 327 153 184 226 279 349 358 318 167 222 332 73 89 142 295 66 285 266 230 96 110 177 186 166 173 87 250 282 270
336 338 346 349 350 3 321 342 351 218 97 88 95 182 96 308 188 196 195 216 268 197 221 251 215 162 127 169 190 351 122 240 300 143 111 173 228 222 225 234 68 220 223 263
330 334 337 345 346 352 327 300 10 336 50 275 118 155 165 159 305 296 278 314 232 229 224 178 339 212 138 157 190 106 288 261 233 224 294 341 243 221 205 192 204 251 243 277
328 328 328 333 338 344 8 345 86 125 331 89 344 327 155 178 203 227 257 244 257 278 265 192 205 136 166 180 150 201 224 251 248 265 271 273 262 250 238 213 217 221 265 277
326 326 324 320 327 333 241 326 275 222 108 166 282 150 213 219 148 239 207 248 300 265 282 4 332 33 232 277 154 224 191 275 301 276 260 250 254 247 238 237 235 238 252 272
322 328 332 347 3 349 296 116 175 309 150 163 204 271 322 268 60 185 279 347 342 279 314 355 330 319 298 276 255 195 183 214 352 273 339 321 287 249 225 233 226 226 240 248
308 326 331 346 0 352 303 32 306 254 263 212 220 153 260 246 213 289 22 183 249 109 304 291 257 235 252 247 251 218 289 219 189 271 306 263 232 170 350 248 237 227 252 264
276 307 315 325 358 347 301 19 301 301 270 176 261 216 224 228 215 213 242 248 227 21 309 297 306 198 236 230 211 216 193 230 273 240 298 280 291 166 179 211 289 236 240 251
251 256 281 290 333 352 300 4 325 295 314 226 221 187 197 223 228 227 201 106 48 11 254 272 249 258 329 178 139 324 214 206 224 323 208 261 240 163 160 322 274 173 141 272
252 230 244 242 267 329 310 14 333 283 264 241 143 206 184 181 276 285 122 148 170 234 223 225 221 244 110 251 209 168 179 210 221 228 261 276 221 154 155 191 250 176 174 202
262 229 225 233 224 223 285 297 32 306 260 276 218 206 185 108 231 208 165 80 234 150 229 223 237 221 212 291 237 175 180 170 193 185 222 260 151 109 177 204 159 176 207 234
261 246 221 221 221 205 179 254 175 152 216 260 286 277 274 237 195 177 188 152 90 224 186 246 294 289 230 209 258 168 240 201 208 190 220 226 190 214 211 181 185 207 214 240
261 253 223 216 215 206 185 220 154 214 276 276 147 232 254 186 193 192 180 191 176 258 88 301 259 234 209 215 227 218 245 244 236 21 251 251 249 235 233 216 210 218 231 235
262 261 239 217 211 212 180 177 178 230 285 267 261 109 229 69 235 220 264 86 115 118 113 244 239 224 208 240 259 214 205 138 216 260 276 282 275 262 259 234 208 196 224 236
264 262 250 227 204 206 194 201 202 206 189 266 288 270 156 138 173 215 226 215 183 176 169 210 227 233 270 260 263 248 207 216 212 245 228 218 264 204 72 222 221 203 227 285
265 260 256 239 202 165 121 272 211 198 152 300 280 167 160 139 207 191 180 197 212 209 190 222 236 212 159 249 257 224 208 226 235 249 241 242 271 158 131 195 248 262 257 258
268 270 266 248 186 163 178 193 142 161 131 173 267 262 102 147 123 112 176 174 196 176 246 243 250 165 177 228 256 203 212 229 235 238 253 263 217 231 215 206 190 289 268 265
281 283 288 277 193 167 187 172 143 153 113 170 244 245 256 177 165 153 158 161 166 207 239 255 246 193 206 249 242 256 249 245 256 257 238 239 226 184 170 173 183 250 265 269
287 310 346 24 82 167 153 134 125 3 170 202 209 210 202 153 184 99 170 181 216 219 219 227 171 194 219 238 246 247 240 225 249 263 253 225 213 212 199 188 205 234 257 265
286 122 163 250 227 119 119 104 140 193 223 229 225 210 191 169 158 185 155 186 229 241 217 194 232 255 271 258 252 254 247 241 244 221 234 260 235 211 192 199 199 207 223 256
201 207 196 302 136 193 175 193 183 179 219 206 205 191 163 202 151 176 209 182 208 251 188 200 243 252 246 261 256 254 254 250 240 230 204 209 205 200 194 197 189 192 214 226
65 112 89 122 228 209 196 193 210 209 225 177 185 213 208 155 158 147 176 214 183 247 129 223 255 250 275 286 277 265 253 251 250 237 228 193 191 193 175 171 182 199 200 221
206 82 172 194 181 203 222 197 202 203 193 167 173 167 124 124 182 161 183 211 219 104 206 233 234 264 299 290 284 279 235 255 262 260 231 165 159 157 179 187 191 189 216 234
215 201 220 208 196 236 200 205 186 212 125 144 159 129 156 147 170 183 210 195 142 207 236 235 245 253 288 311 306 300 281 257 266 240 174 161 155 180 197 189 179 190 214 256
225 190 232 216 220 195 88 328 24 20 127 147 116 112 152 166 203 193 189 178 231 219 231 227 243 281 311 308 296 277 260 221 239 237 191 181 179 175 193 200 198 182 185 222
196 229 240 234 246 237 164 168 123 221 151 119 145 164 200 196 205 181 198 185 223 240 217 243 328 301 309 292 280 279 269 237 184 200 221 211 195 191 195 178 194 194 214 265
210 220 212 238 291 263 240 149 186 183 168 201 198 191 210 158 200 195 189 215 224 186 212 233 287 282 285 282 293 288 268 256 231 178 205 226 209 153 174 226 248 243 249 245